Year,Month,Day,Hour,Minute,Value (Times are PST for windspeed in km/hr)
2010,05,09,00,00,0.80
2010,05,09,00,01,2.10
2010,05,09,00,02,1.60
2010,05,09,00,03,0.10
2010,05,09,00,04,0.80
2010,05,09,00,05,1.30
2010,05,09,00,06,1.10
2010,05,09,00,07,1.00
2010,05,09,00,08,0.60
2010,05,09,00,09,0.80
2010,05,09,00,10,1.30
2010,05,09,00,11,0.10
2010,05,09,00,12,0.30
2010,05,09,00,13,0.20
2010,05,09,00,14,0.10
2010,05,09,00,15,1.60
2010,05,09,00,16,0.10
2010,05,09,00,17,0.10
2010,05,09,00,18,1.50
2010,05,09,00,19,1.60
2010,05,09,00,20,0.80
2010,05,09,00,21,0.10
2010,05,09,00,22,1.00
2010,05,09,00,23,0.20
2010,05,09,00,24,0.70
2010,05,09,00,25,1.50
2010,05,09,00,26,1.90
2010,05,09,00,27,2.30
2010,05,09,00,28,2.10
2010,05,09,00,29,3.10
2010,05,09,00,30,3.40
2010,05,09,00,31,2.50
2010,05,09,00,32,3.40
2010,05,09,00,33,3.30
2010,05,09,00,34,3.60
2010,05,09,00,35,2.30
2010,05,09,00,36,2.60
2010,05,09,00,37,1.50
2010,05,09,00,38,0.20
2010,05,09,00,39,0.70
2010,05,09,00,40,0.90
2010,05,09,00,41,1.10
2010,05,09,00,42,1.20
2010,05,09,00,43,1.90
2010,05,09,00,44,1.60
2010,05,09,00,45,1.20
2010,05,09,00,46,1.80
2010,05,09,00,47,1.20
2010,05,09,00,48,0.30
2010,05,09,00,49,0.90
2010,05,09,00,50,0.20
2010,05,09,00,51,0.50
2010,05,09,00,52,0.50
2010,05,09,00,53,0.90
2010,05,09,00,54,1.90
2010,05,09,00,55,1.60
2010,05,09,00,56,2.10
2010,05,09,00,57,1.60
2010,05,09,00,58,1.30
2010,05,09,00,59,1.00
2010,05,09,01,00,1.90
2010,05,09,01,01,1.50
2010,05,09,01,02,1.60
2010,05,09,01,03,2.00
2010,05,09,01,04,2.30
2010,05,09,01,05,2.10
2010,05,09,01,06,1.20
2010,05,09,01,07,1.70
2010,05,09,01,08,0.30
2010,05,09,01,09,1.70
2010,05,09,01,10,2.20
2010,05,09,01,11,3.10
2010,05,09,01,12,2.30
2010,05,09,01,13,1.70
2010,05,09,01,14,1.50
2010,05,09,01,15,1.20
2010,05,09,01,16,0.10
2010,05,09,01,17,0.40
2010,05,09,01,18,1.20
2010,05,09,01,19,0.40
2010,05,09,01,20,0.20
2010,05,09,01,21,0.10
2010,05,09,01,22,0.00
2010,05,09,01,23,0.00
2010,05,09,01,24,0.00
2010,05,09,01,25,0.00
2010,05,09,01,26,0.10
2010,05,09,01,27,0.00
2010,05,09,01,28,0.90
2010,05,09,01,29,1.80
2010,05,09,01,30,2.60
2010,05,09,01,31,1.00
2010,05,09,01,32,0.00
2010,05,09,01,33,1.10
2010,05,09,01,34,0.50
2010,05,09,01,35,0.00
2010,05,09,01,36,0.30
2010,05,09,01,37,0.00
2010,05,09,01,38,0.00
2010,05,09,01,39,0.00
2010,05,09,01,40,0.10
2010,05,09,01,41,0.00
2010,05,09,01,42,0.00
2010,05,09,01,43,0.10
2010,05,09,01,44,0.10
2010,05,09,01,45,0.10
2010,05,09,01,46,0.90
2010,05,09,01,47,0.10
2010,05,09,01,48,0.20
2010,05,09,01,49,0.00
2010,05,09,01,50,0.00
2010,05,09,01,51,0.00
2010,05,09,01,52,0.40
2010,05,09,01,53,1.10
2010,05,09,01,54,1.10
2010,05,09,01,55,1.80
2010,05,09,01,56,2.40
2010,05,09,01,57,2.40
2010,05,09,01,58,1.10
2010,05,09,01,59,0.80
2010,05,09,02,00,1.20
2010,05,09,02,01,0.70
2010,05,09,02,02,0.90
2010,05,09,02,03,2.00
2010,05,09,02,04,0.90
2010,05,09,02,05,1.00
2010,05,09,02,06,1.10
2010,05,09,02,07,1.20
2010,05,09,02,08,1.70
2010,05,09,02,09,2.10
2010,05,09,02,10,0.70
2010,05,09,02,11,0.70
2010,05,09,02,12,1.60
2010,05,09,02,13,1.30
2010,05,09,02,14,0.80
2010,05,09,02,15,2.30
2010,05,09,02,16,1.40
2010,05,09,02,17,0.40
2010,05,09,02,18,1.30
2010,05,09,02,19,0.60
2010,05,09,02,20,1.80
2010,05,09,02,21,1.80
2010,05,09,02,22,1.60
2010,05,09,02,23,1.60
2010,05,09,02,24,1.40
2010,05,09,02,25,1.60
2010,05,09,02,26,2.20
2010,05,09,02,27,2.40
2010,05,09,02,28,2.80
2010,05,09,02,29,3.00
2010,05,09,02,30,2.80
2010,05,09,02,31,2.60
2010,05,09,02,32,2.10
2010,05,09,02,33,3.00
2010,05,09,02,34,2.60
2010,05,09,02,35,3.90
2010,05,09,02,36,3.20
2010,05,09,02,37,4.50
2010,05,09,02,38,3.80
2010,05,09,02,39,3.60
2010,05,09,02,40,4.50
2010,05,09,02,41,4.20
2010,05,09,02,42,5.70
2010,05,09,02,43,3.60
2010,05,09,02,44,3.80
2010,05,09,02,45,4.30
2010,05,09,02,46,4.10
2010,05,09,02,47,3.90
2010,05,09,02,48,4.60
2010,05,09,02,49,3.70
2010,05,09,02,50,3.90
2010,05,09,02,51,3.50
2010,05,09,02,52,3.90
2010,05,09,02,53,1.70
2010,05,09,02,54,3.40
2010,05,09,02,55,3.30
2010,05,09,02,56,6.10
2010,05,09,02,57,3.00
2010,05,09,02,58,3.30
2010,05,09,02,59,2.60
2010,05,09,03,00,2.30
2010,05,09,03,01,3.00
2010,05,09,03,02,3.80
2010,05,09,03,03,4.50
2010,05,09,03,04,2.50
2010,05,09,03,05,1.60
2010,05,09,03,06,2.50
2010,05,09,03,07,3.10
2010,05,09,03,08,2.70
2010,05,09,03,09,2.90
2010,05,09,03,10,3.40
2010,05,09,03,11,2.90
2010,05,09,03,12,3.80
2010,05,09,03,13,3.40
2010,05,09,03,14,4.30
2010,05,09,03,15,3.40
2010,05,09,03,16,2.80
2010,05,09,03,17,2.40
2010,05,09,03,18,2.80
2010,05,09,03,19,2.80
2010,05,09,03,20,2.50
2010,05,09,03,21,2.00
2010,05,09,03,22,2.10
2010,05,09,03,23,1.90
2010,05,09,03,24,1.00
2010,05,09,03,25,1.70
2010,05,09,03,26,1.20
2010,05,09,03,27,1.50
2010,05,09,03,28,2.10
2010,05,09,03,29,2.00
2010,05,09,03,30,2.00
2010,05,09,03,31,2.00
2010,05,09,03,32,2.20
2010,05,09,03,33,1.60
2010,05,09,03,34,2.20
2010,05,09,03,35,2.10
2010,05,09,03,36,2.70
2010,05,09,03,37,3.10
2010,05,09,03,38,3.20
2010,05,09,03,39,3.40
2010,05,09,03,40,4.40
2010,05,09,03,41,5.50
2010,05,09,03,42,3.30
2010,05,09,03,43,2.70
2010,05,09,03,44,2.90
2010,05,09,03,45,3.80
2010,05,09,03,46,4.00
2010,05,09,03,47,4.10
2010,05,09,03,48,5.00
2010,05,09,03,49,6.00
2010,05,09,03,50,5.00
2010,05,09,03,51,5.90
2010,05,09,03,52,5.30
2010,05,09,03,53,4.80
2010,05,09,03,54,5.20
2010,05,09,03,55,6.60
2010,05,09,03,56,3.60
2010,05,09,03,57,5.60
2010,05,09,03,58,3.80
2010,05,09,03,59,0.40
2010,05,09,04,00,2.60
2010,05,09,04,01,2.70
2010,05,09,04,02,3.40
2010,05,09,04,03,3.40
2010,05,09,04,04,2.40
2010,05,09,04,05,2.60
2010,05,09,04,06,3.40
2010,05,09,04,07,4.30
2010,05,09,04,08,5.30
2010,05,09,04,09,3.60
2010,05,09,04,10,5.50
2010,05,09,04,11,4.00
2010,05,09,04,12,3.70
2010,05,09,04,13,4.60
2010,05,09,04,14,3.60
2010,05,09,04,15,3.00
2010,05,09,04,16,2.60
2010,05,09,04,17,2.90
2010,05,09,04,18,1.90
2010,05,09,04,19,2.30
2010,05,09,04,20,3.10
2010,05,09,04,21,3.60
2010,05,09,04,22,3.20
2010,05,09,04,23,2.30
2010,05,09,04,24,2.50
2010,05,09,04,25,2.00
2010,05,09,04,26,2.00
2010,05,09,04,27,2.40
2010,05,09,04,28,2.30
2010,05,09,04,29,2.00
2010,05,09,04,30,2.20
2010,05,09,04,31,3.20
2010,05,09,04,32,3.50
2010,05,09,04,33,2.80
2010,05,09,04,34,2.60
2010,05,09,04,35,3.10
2010,05,09,04,36,2.70
2010,05,09,04,37,3.20
2010,05,09,04,38,2.10
2010,05,09,04,39,1.70
2010,05,09,04,40,2.40
2010,05,09,04,41,2.40
2010,05,09,04,42,2.70
2010,05,09,04,43,1.60
2010,05,09,04,44,2.40
2010,05,09,04,45,2.60
2010,05,09,04,46,3.10
2010,05,09,04,47,2.70
2010,05,09,04,48,3.20
2010,05,09,04,49,1.90
2010,05,09,04,50,3.30
2010,05,09,04,51,1.10
2010,05,09,04,52,1.50
2010,05,09,04,53,1.80
2010,05,09,04,54,2.20
2010,05,09,04,55,2.10
2010,05,09,04,56,1.80
2010,05,09,04,57,2.00
2010,05,09,04,58,0.90
2010,05,09,04,59,0.20
2010,05,09,05,00,1.30
2010,05,09,05,01,0.40
2010,05,09,05,02,0.10
2010,05,09,05,03,0.40
2010,05,09,05,04,0.00
2010,05,09,05,05,0.00
2010,05,09,05,06,0.00
2010,05,09,05,07,0.00
2010,05,09,05,08,0.50
2010,05,09,05,09,0.50
2010,05,09,05,10,0.80
2010,05,09,05,11,0.40
2010,05,09,05,12,0.70
2010,05,09,05,13,2.90
2010,05,09,05,14,3.30
2010,05,09,05,15,1.30
2010,05,09,05,16,0.70
2010,05,09,05,17,4.60
2010,05,09,05,18,4.80
2010,05,09,05,19,2.40
2010,05,09,05,20,2.50
2010,05,09,05,21,2.70
2010,05,09,05,22,2.10
2010,05,09,05,23,1.00
2010,05,09,05,24,2.60
2010,05,09,05,25,3.30
2010,05,09,05,26,2.60
2010,05,09,05,27,2.30
2010,05,09,05,28,2.60
2010,05,09,05,29,2.80
2010,05,09,05,30,3.70
2010,05,09,05,31,2.50
2010,05,09,05,32,1.20
2010,05,09,05,33,2.50
2010,05,09,05,34,3.50
2010,05,09,05,35,2.50
2010,05,09,05,36,2.60
2010,05,09,05,37,4.00
2010,05,09,05,38,2.50
2010,05,09,05,39,2.50
2010,05,09,05,40,3.30
2010,05,09,05,41,2.80
2010,05,09,05,42,2.20
2010,05,09,05,43,3.60
2010,05,09,05,44,2.90
2010,05,09,05,45,3.10
2010,05,09,05,46,3.20
2010,05,09,05,47,3.20
2010,05,09,05,48,3.60
2010,05,09,05,49,3.50
2010,05,09,05,50,2.90
2010,05,09,05,51,2.10
2010,05,09,05,52,3.30
2010,05,09,05,53,3.40
2010,05,09,05,54,3.10
2010,05,09,05,55,2.70
2010,05,09,05,56,1.50
2010,05,09,05,57,0.40
2010,05,09,05,58,1.50
2010,05,09,05,59,0.90
2010,05,09,06,00,1.60
2010,05,09,06,01,2.90
2010,05,09,06,02,1.90
2010,05,09,06,03,0.90
2010,05,09,06,04,1.50
2010,05,09,06,05,2.00
2010,05,09,06,06,1.70
2010,05,09,06,07,2.00
2010,05,09,06,08,1.40
2010,05,09,06,09,1.70
2010,05,09,06,10,1.80
2010,05,09,06,11,0.60
2010,05,09,06,12,1.70
2010,05,09,06,13,1.80
2010,05,09,06,14,1.90
2010,05,09,06,15,2.30
2010,05,09,06,16,2.20
2010,05,09,06,17,2.00
2010,05,09,06,18,2.70
2010,05,09,06,19,1.20
2010,05,09,06,20,1.10
2010,05,09,06,21,1.90
2010,05,09,06,22,1.20
2010,05,09,06,23,1.80
2010,05,09,06,24,2.70
2010,05,09,06,25,1.40
2010,05,09,06,26,2.50
2010,05,09,06,27,2.10
2010,05,09,06,28,3.30
2010,05,09,06,29,3.20
2010,05,09,06,30,2.30
2010,05,09,06,31,2.00
2010,05,09,06,32,1.80
2010,05,09,06,33,2.50
2010,05,09,06,34,0.10
2010,05,09,06,35,0.70
2010,05,09,06,36,0.00
2010,05,09,06,37,0.00
2010,05,09,06,38,0.00
2010,05,09,06,39,0.00
2010,05,09,06,40,0.20
2010,05,09,06,41,1.00
2010,05,09,06,42,0.20
2010,05,09,06,43,0.20
2010,05,09,06,44,1.50
2010,05,09,06,45,2.30
2010,05,09,06,46,2.50
2010,05,09,06,47,4.30
2010,05,09,06,48,3.80
2010,05,09,06,49,3.60
2010,05,09,06,50,2.80
2010,05,09,06,51,1.40
2010,05,09,06,52,2.70
2010,05,09,06,53,2.00
2010,05,09,06,54,3.70
2010,05,09,06,55,3.30
2010,05,09,06,56,3.40
2010,05,09,06,57,1.60
2010,05,09,06,58,1.70
2010,05,09,06,59,0.80
2010,05,09,07,00,0.30
2010,05,09,07,01,0.00
2010,05,09,07,02,0.00
2010,05,09,07,03,0.00
2010,05,09,07,04,0.10
2010,05,09,07,05,0.00
2010,05,09,07,06,0.00
2010,05,09,07,07,0.00
2010,05,09,07,08,0.00
2010,05,09,07,09,0.00
2010,05,09,07,10,0.00
2010,05,09,07,11,0.00
2010,05,09,07,12,0.20
2010,05,09,07,13,0.10
2010,05,09,07,14,0.00
2010,05,09,07,15,0.00
2010,05,09,07,16,0.00
2010,05,09,07,17,0.40
2010,05,09,07,18,0.60
2010,05,09,07,19,0.20
2010,05,09,07,20,0.00
2010,05,09,07,21,0.10
2010,05,09,07,22,0.00
2010,05,09,07,23,0.00
2010,05,09,07,24,0.00
2010,05,09,07,25,0.00
2010,05,09,07,26,0.10
2010,05,09,07,27,0.00
2010,05,09,07,28,0.00
2010,05,09,07,29,0.00
2010,05,09,07,30,1.90
2010,05,09,07,31,0.80
2010,05,09,07,32,0.00
2010,05,09,07,33,0.00
2010,05,09,07,34,0.00
2010,05,09,07,35,0.00
2010,05,09,07,36,0.00
2010,05,09,07,37,0.00
2010,05,09,07,38,0.00
2010,05,09,07,39,0.10
2010,05,09,07,40,0.30
2010,05,09,07,41,0.00
2010,05,09,07,42,0.00
2010,05,09,07,43,1.10
2010,05,09,07,44,0.00
2010,05,09,07,45,0.00
2010,05,09,07,46,0.10
2010,05,09,07,47,3.20
2010,05,09,07,48,3.60
2010,05,09,07,49,3.00
2010,05,09,07,50,1.20
2010,05,09,07,51,3.10
2010,05,09,07,52,3.60
2010,05,09,07,53,3.30
2010,05,09,07,54,3.00
2010,05,09,07,55,2.90
2010,05,09,07,56,0.20
2010,05,09,07,57,0.50
2010,05,09,07,58,2.80
2010,05,09,07,59,0.50
2010,05,09,08,00,2.80
2010,05,09,08,01,0.30
2010,05,09,08,02,0.30
2010,05,09,08,03,0.40
2010,05,09,08,04,3.40
2010,05,09,08,05,0.80
2010,05,09,08,06,1.80
2010,05,09,08,07,2.20
2010,05,09,08,08,1.80
2010,05,09,08,09,0.30
2010,05,09,08,10,0.50
2010,05,09,08,11,0.00
2010,05,09,08,12,0.00
2010,05,09,08,13,0.00
2010,05,09,08,14,0.40
2010,05,09,08,15,1.00
2010,05,09,08,16,0.30
2010,05,09,08,17,0.10
2010,05,09,08,18,0.20
2010,05,09,08,19,1.10
2010,05,09,08,20,0.10
2010,05,09,08,21,2.40
2010,05,09,08,22,0.10
2010,05,09,08,23,0.10
2010,05,09,08,24,2.30
2010,05,09,08,25,2.70
2010,05,09,08,26,1.70
2010,05,09,08,27,0.00
2010,05,09,08,28,0.00
2010,05,09,08,29,0.00
2010,05,09,08,30,0.00
2010,05,09,08,31,0.00
2010,05,09,08,32,0.00
2010,05,09,08,33,0.00
2010,05,09,08,34,0.00
2010,05,09,08,35,0.00
2010,05,09,08,36,0.00
2010,05,09,08,37,0.10
2010,05,09,08,38,0.10
2010,05,09,08,39,1.50
2010,05,09,08,40,0.00
2010,05,09,08,41,1.30
2010,05,09,08,42,0.20
2010,05,09,08,43,0.20
2010,05,09,08,44,0.00
2010,05,09,08,45,1.00
2010,05,09,08,46,2.40
2010,05,09,08,47,1.20
2010,05,09,08,48,1.70
2010,05,09,08,49,2.40
2010,05,09,08,50,0.40
2010,05,09,08,51,0.10
2010,05,09,08,52,0.20
2010,05,09,08,53,0.10
2010,05,09,08,54,0.00
2010,05,09,08,55,2.10
2010,05,09,08,56,1.90
2010,05,09,08,57,2.20
2010,05,09,08,58,1.80
2010,05,09,08,59,0.10
2010,05,09,09,00,0.00
2010,05,09,09,01,1.70
2010,05,09,09,02,2.00
2010,05,09,09,03,1.80
2010,05,09,09,04,0.50
2010,05,09,09,05,1.60
2010,05,09,09,06,1.20
2010,05,09,09,07,1.80
2010,05,09,09,08,1.30
2010,05,09,09,09,0.00
2010,05,09,09,10,0.00
2010,05,09,09,11,0.40
2010,05,09,09,12,1.90
2010,05,09,09,13,0.00
2010,05,09,09,14,0.00
2010,05,09,09,15,0.20
2010,05,09,09,16,0.40
2010,05,09,09,17,0.20
2010,05,09,09,18,0.40
2010,05,09,09,19,1.00
2010,05,09,09,20,1.10
2010,05,09,09,21,0.20
2010,05,09,09,22,1.20
2010,05,09,09,23,0.10
2010,05,09,09,24,3.40
2010,05,09,09,25,1.50
2010,05,09,09,26,3.00
2010,05,09,09,27,3.90
2010,05,09,09,28,2.10
2010,05,09,09,29,2.40
2010,05,09,09,30,1.80
2010,05,09,09,31,0.50
2010,05,09,09,32,0.00
2010,05,09,09,33,0.00
2010,05,09,09,34,1.70
2010,05,09,09,35,1.50
2010,05,09,09,36,0.00
2010,05,09,09,37,0.00
2010,05,09,09,38,0.90
2010,05,09,09,39,1.50
2010,05,09,09,40,2.10
2010,05,09,09,41,0.10
2010,05,09,09,42,0.40
2010,05,09,09,43,1.10
2010,05,09,09,44,1.10
2010,05,09,09,45,3.50
2010,05,09,09,46,3.00
2010,05,09,09,47,1.80
2010,05,09,09,48,0.30
2010,05,09,09,49,3.50
2010,05,09,09,50,3.60
2010,05,09,09,51,2.70
2010,05,09,09,52,0.80
2010,05,09,09,53,2.00
2010,05,09,09,54,2.80
2010,05,09,09,55,4.10
2010,05,09,09,56,2.90
2010,05,09,09,57,2.80
2010,05,09,09,58,1.00
2010,05,09,09,59,4.60
2010,05,09,10,00,3.90
2010,05,09,10,01,3.00
2010,05,09,10,02,4.50
2010,05,09,10,03,5.60
2010,05,09,10,04,5.10
2010,05,09,10,05,5.20
2010,05,09,10,06,5.10
2010,05,09,10,07,7.50
2010,05,09,10,08,8.50
2010,05,09,10,09,5.60
2010,05,09,10,10,3.90
2010,05,09,10,11,6.60
2010,05,09,10,12,6.20
2010,05,09,10,13,3.60
2010,05,09,10,14,4.10
2010,05,09,10,15,3.50
2010,05,09,10,16,7.30
2010,05,09,10,17,5.90
2010,05,09,10,18,2.50
2010,05,09,10,19,2.10
2010,05,09,10,20,6.90
2010,05,09,10,21,2.90
2010,05,09,10,22,5.80
2010,05,09,10,23,5.60
2010,05,09,10,24,2.60
2010,05,09,10,25,4.70
2010,05,09,10,26,4.40
2010,05,09,10,27,7.30
2010,05,09,10,28,7.50
2010,05,09,10,29,9.10
2010,05,09,10,30,8.30
2010,05,09,10,31,7.20
2010,05,09,10,32,7.10
2010,05,09,10,33,6.60
2010,05,09,10,34,7.10
2010,05,09,10,35,6.30
2010,05,09,10,36,7.10
2010,05,09,10,37,5.80
2010,05,09,10,38,5.20
2010,05,09,10,39,3.80
2010,05,09,10,40,6.70
2010,05,09,10,41,8.10
2010,05,09,10,42,2.90
2010,05,09,10,43,6.30
2010,05,09,10,44,5.10
2010,05,09,10,45,9.40
2010,05,09,10,46,10.10
2010,05,09,10,47,6.20
2010,05,09,10,48,8.60
2010,05,09,10,49,5.50
2010,05,09,10,50,7.20
2010,05,09,10,51,4.80
2010,05,09,10,52,7.20
2010,05,09,10,53,5.20
2010,05,09,10,54,3.40
2010,05,09,10,55,3.30
2010,05,09,10,56,5.90
2010,05,09,10,57,7.40
2010,05,09,10,58,6.90
2010,05,09,10,59,9.40
2010,05,09,11,00,7.90
2010,05,09,11,01,6.00
2010,05,09,11,02,6.10
2010,05,09,11,03,6.10
2010,05,09,11,04,5.60
2010,05,09,11,05,5.60
2010,05,09,11,06,5.00
2010,05,09,11,07,8.80
2010,05,09,11,08,7.30
2010,05,09,11,09,11.90
2010,05,09,11,10,10.30
2010,05,09,11,11,10.60
2010,05,09,11,12,8.40
2010,05,09,11,13,7.50
2010,05,09,11,14,13.70
2010,05,09,11,15,8.90
2010,05,09,11,16,11.60
2010,05,09,11,17,6.60
2010,05,09,11,18,6.20
2010,05,09,11,19,7.10
2010,05,09,11,20,5.20
2010,05,09,11,21,4.70
2010,05,09,11,22,5.00
2010,05,09,11,23,9.30
2010,05,09,11,24,4.40
2010,05,09,11,25,1.90
2010,05,09,11,26,5.10
2010,05,09,11,27,10.00
2010,05,09,11,28,5.60
2010,05,09,11,29,6.80
2010,05,09,11,30,9.50
2010,05,09,11,31,8.50
2010,05,09,11,32,9.70
2010,05,09,11,33,8.50
2010,05,09,11,34,12.10
2010,05,09,11,35,14.00
2010,05,09,11,36,13.80
2010,05,09,11,37,7.20
2010,05,09,11,38,13.10
2010,05,09,11,39,5.60
2010,05,09,11,40,7.10
2010,05,09,11,41,12.30
2010,05,09,11,42,19.00
2010,05,09,11,43,9.50
2010,05,09,11,44,8.40
2010,05,09,11,45,9.90
2010,05,09,11,46,9.10
2010,05,09,11,47,11.90
2010,05,09,11,48,9.00
2010,05,09,11,49,9.90
2010,05,09,11,50,9.40
2010,05,09,11,51,7.80
2010,05,09,11,52,6.30
2010,05,09,11,53,7.10
2010,05,09,11,54,6.60
2010,05,09,11,55,15.90
2010,05,09,11,56,8.70
2010,05,09,11,57,10.30
2010,05,09,11,58,12.50
2010,05,09,11,59,8.90
2010,05,09,12,00,11.30
2010,05,09,12,01,7.50
2010,05,09,12,02,9.40
2010,05,09,12,03,6.80
2010,05,09,12,04,5.80
2010,05,09,12,05,9.00
2010,05,09,12,06,10.30
2010,05,09,12,07,5.60
2010,05,09,12,08,9.00
2010,05,09,12,09,10.50
2010,05,09,12,10,6.90
2010,05,09,12,11,6.90
2010,05,09,12,12,12.90
2010,05,09,12,13,7.00
2010,05,09,12,14,12.50
2010,05,09,12,15,13.00
2010,05,09,12,16,12.10
2010,05,09,12,17,11.30
2010,05,09,12,18,15.60
2010,05,09,12,19,13.60
2010,05,09,12,20,11.80
2010,05,09,12,21,14.60
2010,05,09,12,22,12.80
2010,05,09,12,23,10.20
2010,05,09,12,24,12.10
2010,05,09,12,25,9.70
2010,05,09,12,26,8.20
2010,05,09,12,27,7.90
2010,05,09,12,28,6.60
2010,05,09,12,29,5.10
2010,05,09,12,30,2.90
2010,05,09,12,31,7.50
2010,05,09,12,32,7.80
2010,05,09,12,33,9.60
2010,05,09,12,34,14.90
2010,05,09,12,35,9.30
2010,05,09,12,36,12.20
2010,05,09,12,37,14.40
2010,05,09,12,38,8.60
2010,05,09,12,39,12.10
2010,05,09,12,40,10.80
2010,05,09,12,41,10.20
2010,05,09,12,42,10.70
2010,05,09,12,43,12.00
2010,05,09,12,44,5.40
2010,05,09,12,45,7.40
2010,05,09,12,46,12.60
2010,05,09,12,47,5.90
2010,05,09,12,48,9.60
2010,05,09,12,49,8.50
2010,05,09,12,50,3.80
2010,05,09,12,51,9.30
2010,05,09,12,52,15.20
2010,05,09,12,53,10.80
2010,05,09,12,54,14.80
2010,05,09,12,55,11.10
2010,05,09,12,56,11.20
2010,05,09,12,57,7.10
2010,05,09,12,58,12.60
2010,05,09,12,59,12.80
2010,05,09,13,00,13.50
2010,05,09,13,01,11.30
2010,05,09,13,02,11.40
2010,05,09,13,03,13.10
2010,05,09,13,04,7.40
2010,05,09,13,05,9.40
2010,05,09,13,06,14.20
2010,05,09,13,07,9.60
2010,05,09,13,08,10.50
2010,05,09,13,09,8.50
2010,05,09,13,10,9.50
2010,05,09,13,11,10.80
2010,05,09,13,12,13.80
2010,05,09,13,13,10.70
2010,05,09,13,14,14.10
2010,05,09,13,15,16.40
2010,05,09,13,16,14.50
2010,05,09,13,17,13.30
2010,05,09,13,18,14.60
2010,05,09,13,19,13.50
2010,05,09,13,20,9.00
2010,05,09,13,21,5.50
2010,05,09,13,22,6.40
2010,05,09,13,23,14.60
2010,05,09,13,24,5.20
2010,05,09,13,25,8.80
2010,05,09,13,26,18.60
2010,05,09,13,27,9.80
2010,05,09,13,28,7.20
2010,05,09,13,29,9.10
2010,05,09,13,30,7.80
2010,05,09,13,31,16.80
2010,05,09,13,32,7.80
2010,05,09,13,33,9.00
2010,05,09,13,34,19.40
2010,05,09,13,35,16.00
2010,05,09,13,36,14.90
2010,05,09,13,37,18.20
2010,05,09,13,38,12.00
2010,05,09,13,39,10.20
2010,05,09,13,40,9.40
2010,05,09,13,41,11.80
2010,05,09,13,42,12.10
2010,05,09,13,43,12.40
2010,05,09,13,44,9.40
2010,05,09,13,45,8.90
2010,05,09,13,46,8.00
2010,05,09,13,47,8.30
2010,05,09,13,48,15.40
2010,05,09,13,49,14.00
2010,05,09,13,50,21.00
2010,05,09,13,51,11.60
2010,05,09,13,52,10.10
2010,05,09,13,53,10.20
2010,05,09,13,54,13.60
2010,05,09,13,55,12.30
2010,05,09,13,56,12.60
2010,05,09,13,57,15.50
2010,05,09,13,58,13.20
2010,05,09,13,59,12.90
2010,05,09,14,00,14.30
2010,05,09,14,01,13.10
2010,05,09,14,02,14.30
2010,05,09,14,03,13.30
2010,05,09,14,04,18.70
2010,05,09,14,05,15.00
2010,05,09,14,06,9.40
2010,05,09,14,07,7.10
2010,05,09,14,08,11.00
2010,05,09,14,09,9.20
2010,05,09,14,10,10.80
2010,05,09,14,11,9.00
2010,05,09,14,12,14.30
2010,05,09,14,13,11.10
2010,05,09,14,14,14.30
2010,05,09,14,15,21.40
2010,05,09,14,16,20.60
2010,05,09,14,17,15.20
2010,05,09,14,18,18.10
2010,05,09,14,19,15.20
2010,05,09,14,20,14.30
2010,05,09,14,21,8.20
2010,05,09,14,22,7.20
2010,05,09,14,23,15.30
2010,05,09,14,24,16.60
2010,05,09,14,25,16.10
2010,05,09,14,26,9.80
2010,05,09,14,27,8.00
2010,05,09,14,28,16.10
2010,05,09,14,29,14.90
2010,05,09,14,30,9.20
2010,05,09,14,31,15.60
2010,05,09,14,32,17.60
2010,05,09,14,33,16.20
2010,05,09,14,34,14.00
2010,05,09,14,35,12.10
2010,05,09,14,36,10.60
2010,05,09,14,37,7.00
2010,05,09,14,38,14.10
2010,05,09,14,39,13.00
2010,05,09,14,40,10.60
2010,05,09,14,41,9.50
2010,05,09,14,42,13.40
2010,05,09,14,43,12.80
2010,05,09,14,44,11.90
2010,05,09,14,45,19.50
2010,05,09,14,46,17.60
2010,05,09,14,47,18.70
2010,05,09,14,48,12.00
2010,05,09,14,49,9.40
2010,05,09,14,50,6.70
2010,05,09,14,51,10.70
2010,05,09,14,52,12.70
2010,05,09,14,53,16.10
2010,05,09,14,54,16.00
2010,05,09,14,55,9.30
2010,05,09,14,56,7.60
2010,05,09,14,57,8.50
2010,05,09,14,58,7.00
2010,05,09,14,59,9.50
2010,05,09,15,00,8.30
2010,05,09,15,01,11.30
2010,05,09,15,02,7.60
2010,05,09,15,03,12.10
2010,05,09,15,04,13.00
2010,05,09,15,05,9.70
2010,05,09,15,06,7.60
2010,05,09,15,07,8.10
2010,05,09,15,08,5.00
2010,05,09,15,09,11.00
2010,05,09,15,10,9.30
2010,05,09,15,11,13.00
2010,05,09,15,12,5.20
2010,05,09,15,13,6.80
2010,05,09,15,14,8.90
2010,05,09,15,15,12.30
2010,05,09,15,16,11.50
2010,05,09,15,17,11.90
2010,05,09,15,18,8.80
2010,05,09,15,19,14.60
2010,05,09,15,20,14.70
2010,05,09,15,21,6.40
2010,05,09,15,22,6.10
2010,05,09,15,23,7.40
2010,05,09,15,24,11.60
2010,05,09,15,25,10.70
2010,05,09,15,26,9.40
2010,05,09,15,27,9.50
2010,05,09,15,28,11.40
2010,05,09,15,29,8.00
2010,05,09,15,30,12.30
2010,05,09,15,31,8.50
2010,05,09,15,32,9.20
2010,05,09,15,33,13.50
2010,05,09,15,34,13.60
2010,05,09,15,35,9.30
2010,05,09,15,36,9.60
2010,05,09,15,37,14.90
2010,05,09,15,38,10.30
2010,05,09,15,39,8.80
2010,05,09,15,40,12.10
2010,05,09,15,41,14.20
2010,05,09,15,42,9.20
2010,05,09,15,43,11.30
2010,05,09,15,44,14.10
2010,05,09,15,45,12.10
2010,05,09,15,46,8.50
2010,05,09,15,47,7.40
2010,05,09,15,48,10.10
2010,05,09,15,49,6.00
2010,05,09,15,50,9.10
2010,05,09,15,51,13.50
2010,05,09,15,52,14.30
2010,05,09,15,53,12.10
2010,05,09,15,54,11.90
2010,05,09,15,55,12.70
2010,05,09,15,56,8.00
2010,05,09,15,57,8.50
2010,05,09,15,58,8.10
2010,05,09,15,59,8.90
2010,05,09,16,00,13.00
2010,05,09,16,01,9.50
2010,05,09,16,02,8.10
2010,05,09,16,03,8.20
2010,05,09,16,04,4.10
2010,05,09,16,05,8.90
2010,05,09,16,06,5.90
2010,05,09,16,07,8.50
2010,05,09,16,08,6.00
2010,05,09,16,09,6.90
2010,05,09,16,10,4.80
2010,05,09,16,11,5.10
2010,05,09,16,12,7.10
2010,05,09,16,13,5.80
2010,05,09,16,14,5.60
2010,05,09,16,15,5.00
2010,05,09,16,16,9.30
2010,05,09,16,17,7.50
2010,05,09,16,18,6.10
2010,05,09,16,19,4.60
2010,05,09,16,20,9.20
2010,05,09,16,21,5.40
2010,05,09,16,22,8.70
2010,05,09,16,23,6.40
2010,05,09,16,24,9.00
2010,05,09,16,25,8.50
2010,05,09,16,26,7.50
2010,05,09,16,27,12.80
2010,05,09,16,28,6.40
2010,05,09,16,29,7.00
2010,05,09,16,30,6.20
2010,05,09,16,31,5.30
2010,05,09,16,32,5.10
2010,05,09,16,33,7.00
2010,05,09,16,34,5.30
2010,05,09,16,35,5.60
2010,05,09,16,36,4.10
2010,05,09,16,37,4.90
2010,05,09,16,38,6.00
2010,05,09,16,39,5.90
2010,05,09,16,40,4.10
2010,05,09,16,41,2.40
2010,05,09,16,42,5.60
2010,05,09,16,43,5.20
2010,05,09,16,44,4.80
2010,05,09,16,45,5.40
2010,05,09,16,46,3.50
2010,05,09,16,47,4.80
2010,05,09,16,48,5.30
2010,05,09,16,49,10.10
2010,05,09,16,50,12.80
2010,05,09,16,51,7.50
2010,05,09,16,52,8.10
2010,05,09,16,53,4.90
2010,05,09,16,54,3.80
2010,05,09,16,55,5.70
2010,05,09,16,56,9.70
2010,05,09,16,57,7.70
2010,05,09,16,58,3.00
2010,05,09,16,59,0.10
2010,05,09,17,00,1.50
2010,05,09,17,01,5.20
2010,05,09,17,02,7.50
2010,05,09,17,03,8.00
2010,05,09,17,04,0.60
2010,05,09,17,05,0.50
2010,05,09,17,06,3.10
2010,05,09,17,07,9.10
2010,05,09,17,08,3.30
2010,05,09,17,09,4.60
2010,05,09,17,10,3.70
2010,05,09,17,11,2.20
2010,05,09,17,12,0.90
2010,05,09,17,13,1.20
2010,05,09,17,14,1.50
2010,05,09,17,15,0.70
2010,05,09,17,16,3.40
2010,05,09,17,17,5.30
2010,05,09,17,18,5.80
2010,05,09,17,19,1.40
2010,05,09,17,20,3.80
2010,05,09,17,21,0.60
2010,05,09,17,22,1.50
2010,05,09,17,23,1.70
2010,05,09,17,24,6.80
2010,05,09,17,25,4.00
2010,05,09,17,26,3.90
2010,05,09,17,27,2.00
2010,05,09,17,28,1.90
2010,05,09,17,29,1.50
2010,05,09,17,30,0.30
2010,05,09,17,31,0.90
2010,05,09,17,32,2.10
2010,05,09,17,33,0.80
2010,05,09,17,34,4.20
2010,05,09,17,35,2.50
2010,05,09,17,36,3.20
2010,05,09,17,37,5.60
2010,05,09,17,38,2.90
2010,05,09,17,39,3.80
2010,05,09,17,40,2.50
2010,05,09,17,41,0.30
2010,05,09,17,42,5.00
2010,05,09,17,43,0.10
2010,05,09,17,44,1.10
2010,05,09,17,45,2.40
2010,05,09,17,46,2.30
2010,05,09,17,47,1.50
2010,05,09,17,48,1.00
2010,05,09,17,49,2.30
2010,05,09,17,50,7.10
2010,05,09,17,51,4.20
2010,05,09,17,52,4.20
2010,05,09,17,53,3.60
2010,05,09,17,54,2.90
2010,05,09,17,55,4.40
2010,05,09,17,56,1.80
2010,05,09,17,57,0.00
2010,05,09,17,58,3.40
2010,05,09,17,59,3.20